Tracking 31030 objects as of 17-Jul-2025
HD Live streaming from Space Station
objects crossing your sky now

STARLINK-32882

Track STARLINK-32882 now!
10-day predictions
STARLINK-32882 is classified as:


NORAD ID: 62963
Int'l Code: 2025-029R
Perigee: 481.7 km
Apogee: 483.0 km
Inclination: 53.2 °
Period: 94.1 minutes
Semi major axis: 6853 km
RCS: Unknown
Launch date: February 11, 2025
Source: United States (US)
Launch site: AIR FORCE WESTERN TEST RANGE (AFWTR)
Your satellite tracking list
Your tracking list is empty




NASA's NSSDC Master Catalog

Two Line Element Set (TLE):
1 62963U 25029R   25197.53932048  .00009856  00000-0  34443-3 0  9991
2 62963  53.1578 247.0999 0001009  68.6035 291.5073 15.30200513 25199
Source of the keplerian elements: AFSPC